Location: Bushey
(51.6333°N, 0.3667°W)
Time: 14:12:56
(UTC+00:00)

SPOT 1/Viking Rocket - Pass Details

Date: 03 March 2021
Orbit: 778 x 793 km, 98.4° (Epoch: 13 April)

Event Time Altitude Azimuth Distance (km) Brightness Sun altitude
Exits shadow 20:29:54 46° 36° (NE) 1,045 4.0 -25.8°
Drops below altitude 10° 20:34:05 10° 353° (N) 2,354 6.4 -26.4°
Sets 20:36:28 0° 349° (N) 3,289 7.3 -26.7°
